Volver al catálogo

RADUGA 2

ActivoMilitarGEO
NORAD 9416·PAYLOAD·🇷🇺 Russia

Lanzado Sep 11, 1976 desde Baikonur Cosmodrome

Loading…

TLE

ActualizadoSource: Space-Track

Época: Sep 14, 2026, 14:09 UTC

1 09416U 76092A   26257.58966108 -.00000087  00000-0  00000-0 0  9995
2 09416   3.2522 268.0637 0028063  40.4499 330.7209  1.00298405130240

Sigue RADUGA 2 en tiempo real con AllMySat

Download on the App Store